Regional Weather Roundup
Issued by NWS

Home | Current Version | Previous Version | Text Only | Print | Product List | Glossary Off
Versions: 1 2 3 4 5 6 7 8 9 10 11 12 13 14 15 16 17 18 19 20 21 22 23 24 25 26 27 28 29 30 31 32 33 34 35 36 37 38 39 40 41 42 43 44 45 46 47 48 49 50

000
ASUS43 KLOT 230803
RWRIL

ILLINOIS REGIONAL WEATHER ROUNDUP
NATIONAL WEATHER SERVICE CHICAGO/ROMEOVILLE IL
300 AM CDT SUN APR 23 2017

NOTE: "FAIR" INDICATES FEW OR NO CLOUDS BELOW 12,000 FEET WITH NO
SIGNIFICANT WEATHER AND/OR OBSTRUCTIONS TO VISIBILITY.

* THESE STATIONS ARE NOT UNDER NWS QUALITY CONTROL. THEY ALSO MAY NOT
  REPORT WEATHER SUCH AS PRECIPITATION OR FOG.

ILZ001-002-007-009-015-016-024-230900-
NORTHWEST ILLINOIS

CITY           SKY/WX    TMP DP  RH WIND       PRES   REMARKS
MOLINE         PTCLDY    39  34  82 CALM      30.14S
STERLING*      CLEAR     39  37  92 CALM      30.14
SAVANNA*       CLEAR     38  37  97 NE3       30.14S
$$

ILZ003-004-008-010-011-017-018-230900-
NORTH CENTRAL ILLINOIS

CITY           SKY/WX    TMP DP  RH WIND       PRES   REMARKS
ROCKFORD       CLEAR     39  32  76 CALM      30.15S
FREEPORT*      CLEAR     38  29  70 CALM      30.15S
ROCHELLE*      CLEAR     36  29  75 CALM      30.14S
DE KALB*       CLEAR     44  23  43 CALM      30.14S
PERU*          CLEAR     40  28  62 NE3       30.13F
$$

ILZ005-006-012>014-019>023-230900-
NORTHEAST ILLINOIS

CITY           SKY/WX    TMP DP  RH WIND       PRES   REMARKS
CHICAGO-OHARE  CLEAR     40  29  64 CALM      30.12F
CHICAGO-MIDWAY CLEAR     43  31  62 NW6       30.13F
AURORA         CLEAR     35  30  82 CALM      30.13F
LANSING*       CLEAR     36  33  89 CALM      30.13S
JOLIET*        CLEAR     39  35  85 CALM      30.13F
WAUKEGAN       CLEAR     35  31  85 CALM      30.12S
DUPAGE AIRPORT CLEAR     37  32  82 CALM      30.12F
KANKAKEE*      CLEAR     36  28  73 CALM      30.12F
WHEELING       CLEAR     37  32  82 CALM      30.14F
MORRIS*        CLEAR     41  27  56 CALM      30.12F
NORTHERLY ISL    N/A     46  33  60 CALM        N/A
$$

LMZ740>746-230900-
SOUTHERN LAKE MICHIGAN

STATION/POSITION SKY/WX   TEMP    WIND        PRES    VSBY  WAVE
                          AIR SEA DIR/SP/G                  HT/PER
                          (F)     (DEG/KT/KT) (MB)    (MI)  (FT/S)
HARRISON CRIB              49     180/  7/  7   N/A
BURNHAM HARBOR             46        CALM       N/A
CALUMET HARBOR             44     120/  1/  2 1019.5F
BURNS HARBOR               46      90/  3/  3 1020.3F
MICHIGAN CITY              44      CALM  /  1   N/A
ST. JOSEPH                 47 48  200/  2/  2 1020.6F         1/ 4
$$

ILZ025>027-034>036-040-047-049-050-058-095>099-230900-
WEST-CENTRAL ILLINOIS

CITY           SKY/WX    TMP DP  RH WIND       PRES   REMARKS
QUINCY         CLEAR     43  30  60 N6        30.12F
GALESBURG*     CLEAR     37  32  84 CALM      30.13S
MACOMB*        CLEAR     37  31  78 N6        30.15F WCI  33
JACKSONVILLE*  CLEAR     40  29  64 NE6       30.11F
PITTSFIELD*    CLEAR     46  29  52 CALM      30.12F
$$

ILZ028>032-037-038-041>044-048-051>054-059>061-230900-
CENTRAL ILLINOIS

CITY           SKY/WX    TMP DP  RH WIND       PRES   REMARKS
PONTIAC        CLEAR     40  30  67 CALM      30.13S
BLOOMINGTON    CLEAR     39  28  64 NE6       30.12F WCI  35
DECATUR        CLEAR     37  30  75 N8        30.09F WCI  31
PEORIA         CLEAR     40  30  67 CALM      30.12F
LACON*         CLEAR     36  29  76 CALM      30.12S
LINCOLN*       CLEAR     41  31  67 NE3       30.11F
SPRINGFIELD    CLEAR     42  32  67 CALM      30.11F
TAYLORVILLE    CLEAR     39  30  69 N5        30.09F
$$

ILZ033-039-045-046-055>057-062-063-230900-
EAST-CENTRAL ILLINOIS

CITY           SKY/WX    TMP DP  RH WIND       PRES   REMARKS
CHAMPAIGN      CLEAR     43  25  49 NE13      30.09F
RANTOUL*       CLEAR     42  29  58 NE7       30.10F
MATTOON        CLEAR     39  31  72 NE8       30.07S WCI  33
$$

ILZ079-100>102-230900-
SOUTHWEST ILLINOIS

CITY           SKY/WX    TMP DP  RH WIND       PRES   REMARKS
ALTON          CLEAR     44  32  62 N5        30.09R
BELLEVILLE     CLEAR     46  36  68 N10       30.05S
CAHOKIA*       CLEAR     48  34  58 N10       30.07S
SPARTA*        CLEAR     43  37  78 N7        30.04S
$$

ILZ064>066-069>071-074>076-080>082-084>086-088>090-092>094-230900-
SOUTH-CENTRAL ILLINOIS

CITY           SKY/WX    TMP DP  RH WIND       PRES   REMARKS
CARBONDALE     CLOUDY    50  39  66 NE9       29.99F
CAIRO*         CLOUDY    50  45  83 N7        29.95F
EFFINGHAM*     CLEAR     44  34  68 N6        30.07S
MARION         CLOUDY    50  39  66 N9        29.99F
MT. VERNON     CLOUDY    46  35  65 NE7       30.01F
CENTRALIA*     CLEAR     46  37  72 N8        30.03S
SALEM*         CLEAR     46  36  69 N8        30.04S
$$

ILZ067-068-072-073-078-083-087-091-230900-
SOUTHEAST ILLINOIS

CITY           SKY/WX    TMP DP  RH WIND       PRES   REMARKS
LAWRENCEVILLE  PTCLDY    45  34  65 NE12      30.03F
FLORA*         CLEAR     45  37  73 N8        30.03F
FAIRFIELD*     CLOUDY    46  36  68 N6        30.01S
HARRISBURG*    CLOUDY    50  40  68 NE9       29.98F
ROBINSON*      CLEAR     42  36  78 N10       30.05F
CARMI*         CLOUDY    49  39  68 N12       29.98F
$$

ABBREVIATIONS USED IN REMARKS
   TC - TEMPERATURE IN CELSIUS
  WCI - WIND CHILL INDEX
   HX - HEAT INDEX
  VSB - VISIBILITY
$$





USA.gov is the U.S. government's official web portal to all federal, state and local government web resources and services.